This is the latest recevied weather packets stored in our database for station/object KE8GJZ-2. If no packets are shown the sender has not sent any weather packets the latest 10 day(s).
| Time | Temp. | Humidity | Pressure | Rain* | Wind** | Luminosity | Snow |
|---|---|---|---|---|---|---|---|
| 1777823239 | 13.89° C | 52% | 1012.8 hPa | 0 mm | - | 419 W/m² | - |
| 1777822937 | 13.89° C | 54% | 1012.9 hPa | 0 mm | - | 386 W/m² | - |
| 1777822634 | 13.89° C | 51% | 1013 hPa | 0 mm | - | 478 W/m² | - |
| 1777822332 | 13.89° C | 52% | 1013 hPa | 0 mm | - | 378 W/m² | - |
| 1777822029 | 13.33° C | 55% | 1013 hPa | 0 mm | - | 370 W/m² | - |
| 1777821727 | 13.33° C | 53% | 1013 hPa | 0 mm | - | 262 W/m² | - |
| 1777821424 | 13.33° C | 55% | 1013.1 hPa | 0 mm | - | 242 W/m² | - |
| 1777821121 | 13.33° C | 54% | 1013.2 hPa | 0 mm | - | 224 W/m² | - |
| 1777820818 | 13.33° C | 54% | 1013.3 hPa | 0 mm | - | 222 W/m² | - |
| 1777820514 | 13.33° C | 54% | 1013.2 hPa | 0 mm | - | 262 W/m² | - |
| 1777820211 | 13.89° C | 53% | 1013.2 hPa | 0 mm | - | 309 W/m² | - |
| 1777819908 | 13.33° C | 55% | 1013.5 hPa | 0 mm | - | 401 W/m² | - |
| 1777819605 | 13.33° C | 55% | 1013.4 hPa | 0 mm | - | 319 W/m² | - |
| 1777819303 | 13.33° C | 54% | 1013.6 hPa | 0 mm | - | 269 W/m² | - |
| 1777818999 | 12.78° C | 56% | 1013.4 hPa | 0 mm | - | 558 W/m² | - |
| 1777818697 | 12.22° C | 55% | 1013.5 hPa | 0 mm | - | 564 W/m² | - |
| 1777818394 | 12.22° C | 57% | 1013.7 hPa | 0 mm | - | 193 W/m² | - |
| 1777818090 | 12.22° C | 56% | 1013.7 hPa | 0 mm | - | 262 W/m² | - |
| 1777817787 | 11.67° C | 57% | 1013.7 hPa | 0 mm | - | 233 W/m² | - |
| 1777817485 | 11.67° C | 58% | 1013.8 hPa | 0 mm | - | 153 W/m² | - |
| 1777817180 | 11.11° C | 59% | 1013.8 hPa | 0 mm | - | 164 W/m² | - |
| 1777816878 | 11.11° C | 60% | 1014.2 hPa | 0 mm | - | 143 W/m² | - |
| 1777816575 | 10.56° C | 61% | 1014.2 hPa | 0 mm | - | 112 W/m² | - |
| 1777816272 | 10.56° C | 60% | 1014.3 hPa | 0 mm | - | 111 W/m² | - |
| 1777815969 | 10.56° C | 64% | 1014.3 hPa | 0 mm | - | 87 W/m² | - |
* Rain latest hour (hover to see other rain measurements)
** Current wind speed in m/s (hover to see current wind gust speed)